Location: Enikep?du
(16.5133°N, 80.7066°E)
Time: 11:26:36
(UTC+00:00)

Cosmos 1741 Rocket - Pass Details

Date: 15 May 2026
Orbit: 757 x 778 km, 74.0° (Epoch: 9 June)

Event Time Altitude Azimuth Distance (km) Brightness Sun altitude
Rises 15:12:39 0° 341° (NNW) 3,246 8.0 -29.2°
Reaches altitude 10° 15:15:03 10° 339° (NNW) 2,316 7.1 -29.7°
Enters shadow 15:19:35 58° 296° (WNW) 893 4.5 -30.6°
